TAPA

Details ICAO TAPA (ANU)
Name Antigua - VC Bird Intl
Region Antigua and Barbuda
Timezone America/Antigua (UTC-4.0)
Plans Departing 503
Arriving 570
Stats Elevation 62 ft / 19 m (AMSL)
Location 17.136000° -61.793900°
Runways 1
Magnetic Variation 14.806° W
Sunrise 2019-09-19 09:57:02 UTC / 2019-09-19 05:57:02 Local
Sunset 2019-09-19 22:07:50 UTC / 2019-09-19 18:07:50 Local
Advertisement - Login to hide

Runways

ID Width Length Bearing (true/mag) Surface Threshold Overrun Markings Lighting
07 145 ft / 44 m 9,978 ft / 3,041 m 58.24° / 73.05° ASPHALT 1,640 ft / 500 m 0 ft / 0 m PREC-APP CENTERLINE EDGE THRESHOLD
25 145 ft / 44 m 9,978 ft / 3,041 m 238.25° / 253.05° ASPHALT 981 ft / 299 m 0 ft / 0 m PREC-APP CENTERLINE EDGE THRESHOLD

Map

Weather


0- 5 10 15 20 25 30 35+ Temperature / °C

Clouds and Precipitation
Forecast for 2019-09-20 00:00 UTC. Updated 5 hours ago

Ground ~20,000 ft ~40,000 ft Winds

METAR

TAPA 200200Z 09005KT 060V120 9999 FEW018 28/23 Q1011 NOSIG

TAF

TAF TAPA 192300Z 2000/2024 14014KT 9999 SCT018 BKN038 TEMPO 2004/2024 SHRA FEW014CB BKN016 PROB40 TEMPO 2010/2020 18016G26KT 3000 TSRA

Frequencies

Ground 121.90 MHz VC Bird Ground
Approach 119.10 MHz VC Bird Approach
Tower 118.20 MHz VC Bird Tower
Recorded 114.50 MHz VC Bird ATIS
Warning: Do not use this data for real-world aviation or navigation. No guarantee of current accuracy is given.